This is the latest recevied weather packets stored in our database for station/object 9M2ABD-1. If no packets are shown the sender has not sent any weather packets the latest 10 day(s).
| Time | Temp. | Humidity | Pressure | Rain* | Wind** | Luminosity | Snow |
|---|---|---|---|---|---|---|---|
| 1777960784 | 31.67° C | 64% | 1007.7 hPa | - | - | - | - |
| 1777959584 | 31.67° C | 63% | 1008.3 hPa | - | - | - | - |
| 1777958384 | 31.67° C | 65% | 1008.4 hPa | - | - | - | - |
| 1777957184 | 31.67° C | 65% | 1008.7 hPa | - | - | - | - |
| 1777955984 | 31.67° C | 66% | 1009.3 hPa | - | - | - | - |
| 1777954784 | 31.11° C | 67% | 1009.6 hPa | - | - | - | - |
| 1777953584 | 31.11° C | 68% | 1010 hPa | - | - | - | - |
| 1777952384 | 30.56° C | 72% | 1010.1 hPa | - | - | - | - |
| 1777951274 | 30.56° C | 72% | 1010.2 hPa | - | - | - | - |
| 1777951184 | 30.56° C | 72% | 1010.2 hPa | - | - | - | - |
| 1777949984 | 30° C | 75% | 1010.6 hPa | - | - | - | - |
| 1777948783 | 30° C | 76% | 1010.7 hPa | - | - | - | - |
| 1777947583 | 29.44° C | 77% | 1010.8 hPa | - | - | - | - |
| 1777946437 | 29.44° C | 79% | 1010.9 hPa | - | - | - | - |
| 1777946383 | 29.44° C | 79% | 1010.9 hPa | - | - | - | - |
| 1777945183 | 29.44° C | 80% | 1011 hPa | - | - | - | - |
| 1777943982 | 28.89° C | 82% | 1010.8 hPa | - | - | - | - |
| 1777941583 | 28.33° C | 82% | 1010.3 hPa | - | - | - | - |
| 1777940383 | 28.33° C | 81% | 1010.1 hPa | - | - | - | - |
| 1777939184 | 28.33° C | 79% | 1009.8 hPa | - | - | - | - |
| 1777937983 | 28.33° C | 78% | 1009.8 hPa | - | - | - | - |
| 1777936783 | 28.33° C | 78% | 1009.8 hPa | - | - | - | - |
| 1777935583 | 28.33° C | 78% | 1009.7 hPa | - | - | - | - |
| 1777934383 | 28.33° C | 78% | 1009.5 hPa | - | - | - | - |
| 1777933183 | 28.89° C | 77% | 1009.4 hPa | - | - | - | - |
* Rain since midnight (hover to see other rain measurements)
** Current wind speed in m/s (hover to see current wind gust speed)